Terminal Aerodrome Forecast
Issued by NWS

Home | Current Version | Previous Version | Text Only | Print | Product List | Glossary On
Versions: 1 2 3 4 5 6 7 8 9 10 11 12 13 14 15 16 17 18 19 20 21 22
000
FTUS41 KPBZ 300342 AAB
TAFFKL
TAF AMD
KFKL 300342Z 3004/3024 VRB03KT 3SM BR OVC005
     FM301200 09006KT P6SM OVC008
     FM301500 11006KT P6SM OVC020
     FM301700 13007KT P6SM OVC050
     FM302300 13008KT 5SM -RA OVC035
      AMD LTD TO CLD VIS AND WIND=

USA.gov is the U.S. government's official web portal to all federal, state and local government web resources and services.